Rhinelander, WI

12:50 AM CST on February 20, 2018 (GMT -0600)
Rhinelander-Oneida County

Weather History for KRHI - December, 2011

Change the Weather History Date:

Wednesday, December 21, 2011

  Actual Average Record
Temperature  
Mean Temperature 23 °F 15 °F  
Max Temperature 29 °F 24 °F 49 °F (1967)
Min Temperature 17 °F 6 °F -26 °F (1989)
Degree Days  
Heating Degree Days 42 50  
Month to date heating degree days 908 982  
Since 1 July heating degree days 2699 3116  
Cooling Degree Days 0 0  
Month to date cooling degree days 0 0  
Year to date cooling degree days 321 261  
Moisture  
Dew Point 21 °F    
Average Humidity 85    
Maximum Humidity 100    
Minimum Humidity 69    
Precipitation  
Precipitation T in 0.05 in 0.46 in (1984)
Month to date precipitation 1.43 1.02  
Year to date precipitation 27.62 30.98  
Snow  
Snow 0.10 in - 7.30 in (2010)
Month to date snowfall 9.7  
Since 1 July snowfall 24.0  
Snow Depth 3.00 in    
Sea Level Pressure  
Sea Level Pressure 29.73 in    
Wind  
Wind Speed 6 mph (WSW)    
Max Wind Speed 17 mph    
Max Gust Speed 23 mph    
Visibility 7 miles    
Events Snow    
T = Trace of Precipitation, MM = Missing Value Source: NWS Daily Summary

Daily Weather History Graph

Daily Weather History Graph

Search for Another Location

Airport or City:

Trip Planner

Search our weather history database for the weather conditions in past years. The results will help you decide how hot, cold, wet, or windy it might be!

Date:

Astronomy

Dec. 21, 2011 Rise Set
Actual Time 7:35 AM CST 4:16 PM CST
Civil Twilight 7:00 AM CST 4:50 PM CST
Nautical Twilight 6:23 AM CST 5:28 PM CST
Astronomical Twilight 5:46 AM CST 6:04 PM CST
Moon 4:04 AM CST (12/21) 1:38 PM CST (12/21)
Length of Visible Light 9h 50m
Length of Day
8h 41m
Waning Crescent, 12% of the Moon is Illuminated
Dec 21
Waning Crescent
Dec 24
New
Jan 1
First Quarter
Jan 9
Full
Jan 16
Last Quarter

Hourly Weather History & Observations

Time (CST) Temp. Windchill Dew Point Humidity Pressure Visibility Wind Dir Wind Speed Gust Speed Precip Events Conditions
12:53 AM 25.0 °F 13.6 °F 21.9 °F 88% 29.75 in 8.0 mi SW 12.7 mph 18.4 mph N/A   Overcast
1:50 AM 24.8 °F 15.3 °F 21.2 °F 86% 29.67 in 10.0 mi SW 9.2 mph - N/A   Overcast
1:53 AM 24.1 °F 15.2 °F 21.0 °F 88% 29.74 in 9.0 mi SW 8.1 mph - N/A   Overcast
2:53 AM 24.1 °F 13.7 °F 19.9 °F 84% 29.73 in 9.0 mi SW 10.4 mph - N/A   Mostly Cloudy
3:22 AM 23.0 °F 14.7 °F 19.4 °F 86% 29.65 in 9.0 mi SSW 6.9 mph - N/A   Overcast
3:53 AM 23.0 °F 17.0 °F 19.9 °F 88% 29.71 in 8.0 mi SSW 4.6 mph - N/A   Overcast
4:14 AM 21.2 °F 14.9 °F 19.4 °F 93% 29.63 in 8.0 mi SW 4.6 mph - N/A   Scattered Clouds
4:53 AM 19.9 °F 14.9 °F 18.0 °F 92% 29.69 in 5.0 mi SSW 3.5 mph - N/A   Clear
5:48 AM 17.6 °F 12.3 °F 17.6 °F 100% 29.62 in 2.0 mi SW 3.5 mph - N/A   Partly Cloudy
5:49 AM 18.0 °F 12.7 °F 17.1 °F 96% 29.69 in 2.0 mi SW 3.5 mph - N/A   Partly Cloudy
6:01 AM 17.6 °F 9.3 °F 15.8 °F 93% 29.62 in 4.0 mi SW 5.8 mph - N/A   Scattered Clouds
6:12 AM 19.4 °F 10.4 °F 19.4 °F 100% 29.62 in 5.0 mi SW 6.9 mph - N/A   Mostly Cloudy
6:49 AM 19.4 °F 11.5 °F 19.4 °F 100% 29.61 in 4.0 mi SSW 5.8 mph - N/A   Overcast
6:53 AM 19.9 °F 11.1 °F 19.0 °F 96% 29.69 in 4.0 mi SSW 6.9 mph - N/A   Overcast
7:53 AM 19.9 °F 11.1 °F 18.0 °F 92% 29.68 in 4.0 mi SW 6.9 mph - N/A   Overcast
8:53 AM 19.9 °F 12.1 °F 18.0 °F 92% 29.69 in 4.0 mi WSW 5.8 mph - N/A   Overcast
9:36 AM 21.2 °F 13.6 °F 19.4 °F 93% 29.62 in 5.0 mi WSW 5.8 mph - N/A   Mostly Cloudy
9:53 AM 21.9 °F 13.4 °F 19.9 °F 92% 29.69 in 5.0 mi SW 6.9 mph - N/A   Scattered Clouds
10:53 AM 26.1 °F 19.4 °F 19.9 °F 78% 29.70 in 10.0 mi WSW 5.8 mph - N/A   Clear
11:53 AM 27.0 °F 19.5 °F 19.9 °F 75% 29.70 in 10.0 mi WSW 6.9 mph - N/A   Partly Cloudy
1:25 PM 28.4 °F 21.2 °F 21.2 °F 74% 29.64 in 10.0 mi West 6.9 mph - N/A   Overcast
1:53 PM 28.9 °F 22.8 °F 21.0 °F 72% 29.70 in 10.0 mi West 5.8 mph - N/A   Overcast
2:18 PM 28.4 °F 21.2 °F 21.2 °F 74% 29.65 in 4.0 mi West 6.9 mph - 0.00 in Snow Light Snow
2:53 PM 28.9 °F 20.4 °F 23.0 °F 78% 29.73 in 2.5 mi West 9.2 mph - 0.00 in Snow Light Snow
3:10 PM 28.4 °F 21.2 °F 23.0 °F 80% 29.67 in 4.0 mi WSW 6.9 mph - 0.00 in Snow Light Snow
3:53 PM 28.0 °F 20.0 °F 24.1 °F 85% 29.75 in 9.0 mi West 8.1 mph - 0.00 in   Overcast
4:26 PM 28.4 °F 21.2 °F 24.8 °F 86% 29.70 in 10.0 mi West 6.9 mph - N/A   Overcast
4:53 PM 28.0 °F 22.8 °F 24.1 °F 85% 29.79 in 10.0 mi WNW 4.6 mph - N/A   Overcast
5:11 PM 28.4 °F 21.2 °F 23.0 °F 80% 29.72 in 10.0 mi WNW 6.9 mph - N/A   Overcast
6:53 PM 27.0 °F 21.6 °F 23.0 °F 85% 29.84 in 8.0 mi Variable 4.6 mph - 0.00 in   Overcast
7:53 PM 25.0 °F 19.3 °F 21.9 °F 88% 29.87 in 7.0 mi West 4.6 mph - N/A   Overcast
8:34 PM 24.8 °F 19.1 °F 23.0 °F 93% 29.81 in 7.0 mi West 4.6 mph - N/A   Overcast
8:53 PM 25.0 °F 20.7 °F 23.0 °F 92% 29.90 in 7.0 mi WNW 3.5 mph - N/A   Mostly Cloudy
9:43 PM 26.6 °F - 23.0 °F 86% 29.83 in 8.0 mi Calm Calm - N/A   Overcast
9:53 PM 26.1 °F - 23.0 °F 88% 29.91 in 8.0 mi Calm Calm - N/A   Overcast
10:26 PM 26.6 °F 22.6 °F 23.0 °F 86% 29.85 in 9.0 mi WNW 3.5 mph - N/A   Overcast
10:53 PM 27.0 °F 23.0 °F 23.0 °F 85% 29.94 in 10.0 mi Variable 3.5 mph - N/A   Overcast
11:19 PM 26.6 °F 22.6 °F 23.0 °F 86% 29.88 in 9.0 mi West 3.5 mph - N/A   Overcast
11:53 PM 26.1 °F 21.9 °F 23.0 °F 88% 29.96 in 9.0 mi West 3.5 mph - N/A   Overcast